Location: Woodhurst
(52.3667°N, 0.0667°W)
Time: 19:05:44
(UTC+00:00)

Okean 1 - Pass Details

Date: 19 May 2025
Orbit: 478 x 498 km, 82.5° (Epoch: 22 June)

Event Time Altitude Azimuth Distance (km) Brightness Sun altitude
Exits shadow 21:43:49 18° 167° (SSE) 1,258 4.6 -12.1°
Maximum altitude 21:46:19 52° 96° (E) 619 3.3 -12.3°
Drops below altitude 10° 21:49:55 10° 20° (NNE) 1,684 6.4 -12.6°
Sets 21:52:03 0° 15° (NNE) 2,567 7.5 -12.7°
